Home > Weather > Honolulu > Past weeks

Flag for USA Past Weather in Honolulu, Hawaii, USA — Yesterday and Last 2 Weeks

Now
87 °F

Broken clouds.


Feels Like: 90 °F
Forecast: 75 / 83 °F
Wind: 21 mph from Northeast

Location: Honolulu International Airport

Current Time: Jul 28, 2016 at 4:17:43 PM

Latest Report: Jul 28, 2016 at 2:53 PM


Visibility: 10 mi

Pressure: 29.98 "Hg

Humidity: 51%

Dew Point: 67 °F

Location of HonoluluLocation

Past Weather in Honolulu — Graph

°F

Honolulu Temperature Yesterday

Maximum temperature yesterday: 86 °F (at 3:53 PM)
Minimum temperature yesterday: 74 °F (at 2:53 AM)
Average temperature yesterday: 80 °F

High & Low Weather Summary for the Past Weeks

 TemperatureHumidityPressure
High91 °F (Jul 14, 2:53 PM)100% (Jul 24, 6:00 PM)30.07 "Hg (Jul 24, 6:00 PM)
Low69 °F (Jul 26, 4:53 AM)43% (Jul 28, 12:53 PM)29.82 "Hg (Jul 24, 1:53 PM)
Average80 °F73%29.96 "Hg
* Reported Jul 13 2:53 PM — Jul 28 2:53 PM, Honolulu, Weather by CustomWeather, © 2016

Note: Actual official high and low records may vary slightly from our data, if they occured in-between our weather recording intervals... More about our weather records

Advertising

Honolulu Weather History for the Previous 24 Hours

Scroll right to see more
 ConditionsComfort  
Time TempWeatherWind HumidityBarometerVisibility
2:53 PM
Thu, Jul 28
87 °FBroken clouds.21 mph51%29.98 "Hg10 mi
1:53 PM87 °FScattered clouds.24 mph48%30.00 "Hg10 mi
12:53 PM88 °FScattered clouds.21 mph43%30.01 "Hg10 mi
11:53 AM87 °FScattered clouds.25 mph45%30.02 "Hg10 mi
10:53 AM86 °FScattered clouds.20 mph48%30.02 "Hg10 mi
9:53 AM85 °FScattered clouds.14 mph53%30.03 "Hg10 mi
8:53 AM82 °FScattered clouds.18 mph60%30.03 "Hg10 mi
7:53 AM81 °FScattered clouds.13 mph60%30.02 "Hg10 mi
6:53 AM79 °FScattered clouds.15 mph67%30.02 "Hg10 mi
5:53 AM78 °FPassing clouds.12 mph66%30.00 "Hg10 mi
4:53 AM78 °FPassing clouds.13 mph64%29.98 "Hg10 mi
3:53 AM78 °FPassing clouds.15 mph64%29.98 "Hg10 mi
2:53 AM79 °FClear.16 mph60%29.98 "Hg10 mi
1:53 AM79 °FPassing clouds.13 mph65%29.99 "Hg10 mi
12:53 AM79 °FPassing clouds.18 mph62%30.00 "Hg10 mi
11:53 PM
Wed, Jul 27
79 °FPassing clouds.15 mph65%30.02 "Hg10 mi
10:53 PM80 °FPartly cloudy.12 mph64%30.03 "Hg10 mi
9:53 PM80 °FPassing clouds.9 mph64%30.02 "Hg10 mi
8:53 PM80 °FPartly cloudy.14 mph64%30.00 "Hg10 mi
7:53 PM81 °FPartly cloudy.7 mph60%30.00 "Hg10 mi
6:53 PM82 °FBroken clouds.N/A58%29.98 "Hg10 mi
5:53 PM84 °FBroken clouds.14 mph57%29.96 "Hg10 mi
4:53 PM84 °FScattered clouds.13 mph57%29.95 "Hg10 mi
Weather by CustomWeather, © 2016

See weather overviewHow to use our weather pages